Weather Roundup
Issued by NWS Springfield, MO

Home | Current Version | Previous Version | Text Only | Print | Product List | Glossary On
Versions: 1 2 3 4 5 6 7 8 9 10 11 12 13 14 15 16 17 18 19 20 21 22 23 24 25 26 27 28 29 30 31 32 33 34 35 36 37 38 39 40 41 42 43 44 45 46 47 48 49 50
000
NZUS99 KSGF 291557
HRRSGF

HOURLY WEATHER
NATIONAL WEATHER SERVICE SPRINGFIELD MO
1100 AM CDT THU SEP 29 2016

......SGF CWA......

CITY           SKY/WX    TMP DP  RH WIND       PRES   REMARKS
SPRINGFIELD    SUNNY     63  49  60 N15       30.31R
JOPLIN         SUNNY     62  52  69 N7        30.36R
WEST PLAINS    SUNNY     67  47  48 N14G22    30.26R
ROLLA          SUNNY     62  52  69 N16       30.25S
BRANSON        MOSUNNY   61  48  63 N12       30.31R

......SURROUNDING SGF CWA......

CITY           SKY/WX    TMP DP  RH WIND       PRES   REMARKS
CHANUTE        SUNNY     64  52  64 N7        30.38S
PARSONS        SUNNY     64  53  67 N9        30.39R
COFFEYVILLE    SUNNY     65  52  62 N9        30.38R
EMPORIA        SUNNY     62  52  69 N9        30.41S
HARRISON AR    SUNNY     63  49  60 NW13      30.30R

......KANSAS AND MISSOURI......

CITY           SKY/WX    TMP DP  RH WIND       PRES   REMARKS
KANSAS CTY INT MOSUNNY   63  51  65 N12       30.39R
SEDALIA        SUNNY     66  51  58 NW12      30.34R
ST JOSEPH      SUNNY     63  51  65 VRB5      30.40S
ST LOUIS       CLOUDY    59  52  77 NW14      30.21R
WICHITA        MOSUNNY   62  49  62 N5        30.43R
TOPEKA         SUNNY     62  52  69 N7        30.41S
OLATHE         SUNNY     61  49  64 N12       30.38R

......TENNESSEE......

CITY           SKY/WX    TMP DP  RH WIND       PRES   REMARKS
MEMPHIS        NOT AVBL
NASHVILLE      PTSUNNY   63  50  62 N7        30.10S

......ARKANSAS.......

CITY           SKY/WX    TMP DP  RH WIND       PRES   REMARKS
FAYETTEVILLE   SUNNY     63  50  62 MISG      30.32S
FT SMITH       SUNNY     67  47  48 N6        30.31S
LITTLE ROCK    MOSUNNY   71  47  42 N14       30.24S

......OKLAHOMA.......

CITY           SKY/WX    TMP DP  RH WIND       PRES   REMARKS
TULSA          MOSUNNY   65  51  60 VRB7      30.37S
PONCA CITY     SUNNY     66  49  54 N10       30.40R
MCALESTER      MOSUNNY   67  49  52 N13G20    30.35R
OKLAHOMA CITY  MOSUNNY   64  48  56 N12       30.38S

......IOWA............

CITY           SKY/WX    TMP DP  RH WIND       PRES   REMARKS
DES MOINES     NOT AVBL
QUAD CITIES    SUNNY     64  51  62 N13       30.27S

......ILLINOIS........

CITY           SKY/WX    TMP DP  RH WIND       PRES   REMARKS
QUINCY         PTSUNNY   61  52  72 N15       30.26S
CHICAGO        CLOUDY    63  57  81 NE12G23   30.17R




USA.gov is the U.S. government's official web portal to all federal, state and local government web resources and services.